This is the latest recevied weather packets stored in our database for station/object K7AEL. If no packets are shown the sender has not sent any weather packets the latest 10 day(s).
| Time | Temp. | Humidity | Pressure | Rain* | Wind** | Luminosity | Snow |
|---|---|---|---|---|---|---|---|
| 1777858868 | 28.89° C | 15% | 1010.4 hPa | 0 mm | - | 15 W/m² | - |
| 1777858565 | 29.44° C | 15% | 1010.5 hPa | 0 mm | - | 17 W/m² | - |
| 1777858262 | 29.44° C | 14% | 1010.3 hPa | 0 mm | - | 20 W/m² | - |
| 1777857959 | 30° C | 14% | 1010.3 hPa | 0 mm | - | 25 W/m² | - |
| 1777857657 | 30° C | 14% | 1010.1 hPa | 0 mm | - | 38 W/m² | - |
| 1777857354 | 30° C | 14% | 1009.9 hPa | 0 mm | - | 32 W/m² | - |
| 1777857050 | 30.56° C | 14% | 1010.2 hPa | 0 mm | - | 50 W/m² | - |
| 1777856745 | 30.56° C | 13% | 1010.5 hPa | 0 mm | - | 65 W/m² | - |
| 1777856442 | 30.56° C | 14% | 1010.5 hPa | 0 mm | - | 81 W/m² | - |
| 1777856138 | 31.11° C | 13% | 1010.4 hPa | 0 mm | - | 97 W/m² | - |
| 1777855836 | 30.56° C | 13% | 1010.5 hPa | 0 mm | - | 99 W/m² | - |
| 1777855534 | 31.11° C | 13% | 1010.3 hPa | 0 mm | - | 71 W/m² | - |
| 1777855231 | 31.67° C | 13% | 1010.4 hPa | 0 mm | - | 94 W/m² | - |
| 1777854927 | 31.67° C | 13% | 1010.5 hPa | 0 mm | - | 122 W/m² | - |
| 1777854624 | 31.67° C | 13% | 1010.5 hPa | 0 mm | - | 146 W/m² | - |
| 1777854320 | 31.67° C | 13% | 1010.4 hPa | 0 mm | - | 160 W/m² | - |
| 1777854018 | 32.22° C | 13% | 1010.3 hPa | 0 mm | - | 168 W/m² | - |
| 1777853716 | 31.67° C | 13% | 1010.4 hPa | 0 mm | - | 176 W/m² | - |
| 1777853412 | 31.67° C | 12% | 1010.5 hPa | 0 mm | - | 193 W/m² | - |
| 1777853109 | 31.67° C | 12% | 1010.5 hPa | 0 mm | - | 207 W/m² | - |
| 1777852806 | 31.67° C | 12% | 1010.3 hPa | 0 mm | - | 221 W/m² | - |
| 1777852504 | 32.78° C | 12% | 1010.1 hPa | 0 mm | - | 231 W/m² | - |
| 1777852201 | 31.67° C | 12% | 1010.2 hPa | 0 mm | - | 248 W/m² | - |
| 1777851898 | 32.22° C | 12% | 1010.4 hPa | 0 mm | - | 251 W/m² | - |
| 1777851597 | 32.22° C | 12% | 1010.2 hPa | 0 mm | - | 288 W/m² | - |
* Rain latest hour (hover to see other rain measurements)
** Current wind speed in m/s (hover to see current wind gust speed)